Satellite-Ground Cal/Val Site Overpasses Predictions

Prediction of Satellite NPP Overpassing Cal/Val Site: Antarctic Dome C

Ground Cal/Val Site Location: Latitude: -75.10, Longitude: 123.35; Satellite-Ground Site NADIR distance within 100 km.

Table of predicted overpasses for the next 14.0 days since TLE Epoch: 3/16/2018
Interval Starting Time Ending Time Minimum Distance Time Minimum Distance (km)
1 03/18/2018 07:31:08 03/18/2018 07:31:37 03/18/2018 07:31:22 2.52
2 03/21/2018 14:54:36 03/21/2018 14:55:04 03/21/2018 14:54:50 20.37
3 03/22/2018 14:35:55 03/22/2018 14:36:09 03/22/2018 14:36:02 86.48
4 03/23/2018 07:37:26 03/23/2018 07:37:54 03/23/2018 07:37:40 34.73
5 03/24/2018 07:18:42 03/24/2018 07:19:01 03/24/2018 07:18:51 75.35
6 03/26/2018 15:00:57 03/26/2018 15:01:21 03/26/2018 15:01:09 57.63
7 03/27/2018 14:42:07 03/27/2018 14:42:32 03/27/2018 14:42:19 51.48
8 03/28/2018 07:43:49 03/28/2018 07:44:09 03/28/2018 07:43:59 70.15


NCC Satellite Cal/Val Overpasses Prediction Service
